ARIANE 2 DEB, 28569

Orbit data source: Space-Track

ARIANE 2 DEB, 28569 is space debris in HEO originally from a launch on Fri, 27 Jan 1989 UTC launched from the French Guiana (FRGUI). Debris objects in space refer to the collection of defunct objects orbiting the Earth. Examples of debris include non-operational satellites, rocket bodies, and fragments generated from explosions, collisions, or faulty payload assembly.

Loading next visibility...
Identifier
28569, 1989-006AL
Orbit
HEO
Country
Flag of FRFR
Related business
Manufacturer
EADS/LV
Mission
Spacecraft
Bus & Motor
Unknown
Mass
Unknown
Launch date (UTC)
1989-01-27 (38 years ago)
Launch vehicle
Unknown
Launch site
French Guiana (FRGUI)
Object type
Payload
Rocket body
Debris
Shape & HBR
Unknown shape, 0.2 m
Radar Cross Section
Medium (>0.1 m² and <1 m²)

Expand to show TLE details & history
Last TLE update: 3 days ago

TLE from 3 days ago
0 ARIANE 2 DEB
1 28569U 89006AL  26254.42180451 -.00000060  00000-0  36218-3 0  9997
2 28569   8.0013  98.0963 7117832  35.1826 261.1845  2.31272690188740
Epoch: 2026-09-11T10:07Z
TLE epoch observation values (Epoch: 2026-09-11T10:07:23.909Z)
Latitude
-6.70732°
Longitude
-167.629°
Altitude
28,872.801 km
Speed
2.472 km/s
True Right ascension
22h 18m 39s
True Declination
-6° 41' 57"
Sunlit
Object was in daylight at epoch
Visualization orbit readout
Latitude
Unknown
Longitude
Unknown
Altitude
Unknown
Speed
Unknown
Apparent Right ascension
Unknown
Apparent Declination
Unknown
Sunlit
N/A
Visualization observer readout
Local Sidereal Time
21:28:59
Azimuth
Unknown
Elevation
Unknown
Doppler factor
Unknown
Orbital elements
Apogee altitude
34,976.717 km
Perigee altitude
584.873 km
Semi-major axis
24,158.932 km
Eccentricity
0.71178
Inclination
8.0013°
RAAN
98.0963°
Arg. of periapsis
35.1826°
True anomaly
201.64554°
Mean anomaly
261.1845°
Eccentric anomaly
229.96127°
Mean motion
0.578 °/min
Orbital period
622.84 mins
BSTAR
0.00036218
Loading maneuver chart data...
Computing Atmospheric mass density...
Loading historical data...
Loading historical data...
Loading historical data...
Loading historical data...
Loading historical data...
Loading historical data...
Loading historical data...

Documentation

Showing up to 5 results
|